GIOVE-A 1 28922U 05051A 10250.75468822 .00000008 00000-0 10000-3 0 7286 2 28922 56.1089 145.6196 0008969 354.5228 5.5378 1.69476680 29159 GIOVE-B 1 32781U 08020A 10251.03949605 -.00000003 00000-0 10000-3 0 3516 2 32781 55.9228 180.2528 0020309 224.0916 135.7322 1.70949258 14786